User: anonymous   Login
Location: Unspecified
(0.0000°N, 0.0000°E)
Time: 08:53:15
(UTC+00:00)
Language:

NOSS 7 (A) - Orbit

View from above orbital plane
View from above orbital plane
View from above satellite
View from above satellite

Ground track
Ground track

The orbit data is extracted from the following two-line orbital elements,

1 16591U 86014A   16251.85985552 0.00000400  00000-0  53438-4 0    07
2 16591  63.3150 192.5470 0869635  44.9883 315.0117 13.46968219    00
Epoch (UTC): 07 September 2016 20:38:11
Eccentricity: 0.0869635
inclination: 63.3150°
perigee height: 434 km
apogee height: 1732 km
right ascension of ascending node: 192.5470°
argument of perigee: 44.9883°
revolutions per day: 13.46968219
mean anomaly at epoch: 315.0117°
orbit number at epoch: 0

The dashed part of the orbit path shows where the satellite is in the earth's shadow,  

DLR